Fleeflicker's sites:

title views votes rating creation
?Slaphappy 1,127 34 (3.68)  2005-10-24
?Pussy!CAT. 1,718 20 (3.40)  2005-10-26
?THE $100,000 PYRAMID! 9,773 439 (4.10)  2005-12-03
?toasty 1,268 16 (3.56)  2005-12-23
?They've gone to plaid!(tiled, sorry) 3,132 20 (3.60)  2006-01-07
?Spaceballs Buckle Up 1,931 29 (3.79)  2006-01-08
?Action Khan (Now with Genesis). 2,765 24 (3.63)  2006-01-12
?Conan stares into Eric's soul. 2,729 89 (3.82)  2006-01-13
?Indiana Jones: Lost City of Atlantis spoiler 2,102 16 (3.56)  2006-01-13
?Paris Hilton is very Happy. 14,550 113 (3.92)  2006-01-29
?Sean Connery Speaks Truth 5,681 104 (4.02)  2006-02-14
?Ode to the Choco Taco 2,306 73 (3.97)  2006-02-15
?Another Lame Adaptation of a YTMND 481 11 (3.27)  2006-02-20
?Mavis Beacon PTKFGS 4,747 132 (3.86)  2006-03-07
?Brian Fellows, Safari Planet 6,174 32 (4.00)  2006-03-07
?Acetone Messiah! 3,407 134 (4.01)  2006-03-09
?dew looking out my backdoor. 1,685 39 (3.85)  2006-03-09
?Lambchop Seizes Control. 4,229 397 (3.88)  2006-03-12
?Hollywood Bought the Rights 2 *final* 7,654 412 (4.08)  2006-03-29
?Bought a disposable camera in Compton! (graphic pi... 2,201 123 (3.90)  2006-04-01
?Picard wakes Snorlax 1,778 63 (3.79)  2006-04-04
?Catch you later! 1,715 24 (3.00)  2006-04-07
?Homepage Update #1 643 20 (3.65)  2006-04-18
?The Real Happy Forest 7,569 101 (4.47)  2006-04-28
?American Gladiators'® "Sophisticat... 1,413 18 (4.00)  2006-05-01
?Smokey is on Alert 2,064 136 (4.01)  2006-05-07
?Arnold Enjoys Picard More Anyways 5,018 126 (3.90)  2006-05-10
?El Niño is Spanish for.... 850 91 (3.64)  2006-05-14
?Rejected Pog Design #32 1,098 21 (3.43)  2006-06-01
?Galaxy Song 775 20 (3.45)  2006-06-04
?Bob Ross Bee Harvests Nectar From Rare Barry ... 1,763 36 (3.53)  2006-06-10
?Paul Boomer: Professional Fartsman (long audio) 18,689 32 (3.72)  2006-06-22
?Lord Windesmere: Champion Fartsman (1/2) (Long... 10,950 14 (3.86)  2006-06-22
?Lord Windesmere: Champion Fartsman (2/2) (Long... 9,417 20 (3.80)  2006-06-22
?RIP Darryl Strawberry *revised audio* 1,195 23 (4.04)  2006-06-27
?Gabe Walker Conquers the Twin Peaks of Johans... 3,654 74 (3.64)  2006-07-06
?Gabe Walker Attempts (to) Mount Lopez 873 13 (3.38)  2006-07-07
?A More Noble Cause 7,548 249 (3.82)  2006-07-10
?Lol, Lemmiwinks (could have had better execution). 1,158 38 (3.55)  2006-07-13
?Hey, you STILL don't have a Sega CD... 7,496 301 (3.76)  2006-07-13
?Japanese Graphics Tightening In Progress 20,409 519 (4.11)  2006-07-13
?INTENSE GAMING 9,978 295 (3.94)  2006-07-15
?Segata SanshirĊ Takes Balls to the Chest 904 30 (3.53)  2006-07-15
?Leon Phelps is the Man now 1,227 14 (3.71)  2006-07-18
?Words of Wisdom: Farley 418 9 (3.33)  2006-07-23
?The only true way to use Adobe Photo Shop 38,129 1,197 (4.16)  2006-07-23
?Do You ***REALLY *** Remember 1998? 1,046 32 (3.66)  2006-07-25
?Life From A Dot 3,524 119 (3.72)  2006-07-26
?Hermione Nip-Slip on Nickelodeon 20,240 88 (3.48)  2006-07-26
?Let's see if you remember this ish... 501 8 (3.75)  2006-08-02
?Sheik Hassan Nasrallah addresses the Media 803 10 (3.80)  2006-08-02
?Little Richard Strikes the Innocent 3,198 144 (3.77)  2006-08-03
?The Wall Trap, Ahhhhhhh!!!!!! 18,741 535 (4.10)  2006-08-04
?You're a Dead Man, Ramsey! 5,220 68 (3.74)  2006-08-10
?I would like to solve the puzzle! 13,328 417 (4.08)  2006-08-14
?(artsytmnd): Gradients 595 54 (3.91)  2006-08-20
?Even the late Otis Redding made it there. 524 9 (3.44)  2006-08-23
?Betelgeuse Adopts Pluto 1,233 19 (3.95)  2006-08-26
?MSALM: Jackie Chan 10,801 442 (4.18)  2006-08-28
?The IAU was deceived 488 12 (3.50)  2006-09-01
?LotR: Theoden Crash Fenslerfilm 1,775 24 (3.92)  2006-09-06
?They Is Dissin' Our Posse 628 6 (3.33)  2006-09-10
?Emeril Lagasse upvotes (almost) all of money-hat&... 839 15 (3.60)  2006-09-14
?Epic Golden Axe Maneuver 12,423 80 (3.88)  2006-09-25
?Does YTMND Remember Zissou? 1,600 89 (3.96)  2006-10-11
?Hulk Hogan Is Watching You 575 7 (3.29)  2006-11-19
?Master Exploder: Condoleezza Rice Facemelter. 1,997 36 (3.67)  2006-11-25
?Ralphy's Decoder Pin Reveals Secrets 407 10 (3.70)  2006-12-03
?Crazy Somolian Dude Rocks the Wii + Bob 543 8 (3.75)  2006-12-06
?Chestnuts Roasting... 5,621 301 (3.92)  2006-12-16
?Fate of the Planet! 1,749 87 (3.74)  2007-01-01
?Poland is very Happy, Vote 5. 740 23 (3.57)  2007-01-02
?Bennett Makes Music 1,393 7 (3.00)  2007-01-11
?ddiknad's blocks: translated 803 20 (3.70)  2007-01-22
?PROTECT THAT THIGH! 11,755 372 (4.17)  2007-01-22
?Laughin' Taft 905 20 (3.75)  2007-01-23
?You Betrayed the Lawlawlawlawlawlawlawlaw doo... 9,145 366 (4.25)  2007-01-25
?Pshoshotshiop OCnotesT, MErbliooo! 631 16 (2.88)  2007-01-29
?YTMND Ritual Viewing 801 13 (4.15)  2007-02-05
?Chilie Con Carne Mix 519 4 (4.00)  2007-02-06
?Ring te Bells 522 8 (3.25)  2007-03-06
?Ev can't believe it.. 245 7 (3.29)  2007-03-23
?Vibrant Twinkie. 1,204 15 (3.53)  2007-03-23
?Yul Brenner is not in the Easter Spirit 2,416 22 (4.45)  2007-04-08
?First Day at Work (If you stand back really far it lo... 11,969 324 (4.14)  2007-05-19
?1112211 1,368 24 (3.88)  2007-05-22
?M4DH4TT3R 557 9 (3.56)  2007-06-09
?Touch It. 15,141 328 (3.95)  2007-06-09
?Goldblum has something to say 641 5 (3.60)  2007-06-11
?Tater Mitts Delivers 391 3 (2.67)  2007-08-01
?NightTrap: Your Bullets Can't Hurt Me! 439 5 (2.00)  2007-09-02
?Captain Kirk is Steamed... 512 13 (3.31)  2007-09-13
?Just Stick it in Your Genesis 359 3 (2.33)  2007-09-16
?Jeff Dowder's Question of the Week! 1,029 36 (3.86)  2007-11-12
?Hanz Don't Take No Woman Lip 386 13 (3.15)  2007-11-28
?THIS IS SERIOUS! 341 4 (3.50)  2008-01-13
?PTKFGS: School Buses hate Ken 19,557 480 (4.36)  2008-01-14
?They're Smaller Than NUTS! 325 6 (3.67)  2008-02-27
?Blot That! 170 1 (2.00)  2008-03-11
?Da Club Soda 296 8 (2.25)  2008-03-13
?Cobra is a fun guy 1,039 5 (4.20)  2008-04-10
?coleco-smurf, it's smurftalk... 398 4 (3.75)  2008-04-14
?You Betrayed the WORF! 1,317 23 (3.78)  2008-04-15
?Hard Eggs 14,477 343 (4.18)  2008-05-05
?HAMMONDS 176 272 2 (3.00)  2008-05-29
?I'm out of quarters. 483 4 (3.50)  2008-05-30
?MPHMPHBDANS 563 12 (3.67)  2008-06-09
?Let me see your identity card... 336 7 (2.86)  2008-06-13
?Woman Won't Take Thulsa Doom's ... 474 3 (4.00)  2008-06-16
?Nick Burns: Computer Gangsta 523 9 (2.44)  2008-07-30
?PRIDE 279 5 (2.60)  2008-08-07
?Ten Chinese Flavors of Jell-o 290 3 (2.67)  2008-09-29
?James David Manning hates Sinbad 727 21 (4.00)  2008-10-12
?Pizza What? 1,922 97 (3.94)  2009-01-25
?De Disco! De Disco! 698 17 (3.65)  2009-03-05
?Razor Gator Goes Intercontinental 745 40 (3.43)  2009-03-10
?T-Shirt: The Actual Truth™ 304 5 (2.80)  2009-03-26
?T-Shighrt - Epic 580 12 (3.50)  2009-03-28
?bound to make more than 1 person angry T-Shirt 663 16 (3.25)  2009-04-05
?Fashionably Late Easter Site 610 7 (3.00)  2009-04-14
?Live Footage of Michael Jackson's Heart Att... 1,006 14 (3.29)  2009-06-26
?QUICK 806 3 (4.33)  2009-07-14
?Emma Watson's Lingerie Halloween Costum... 3,212 12 (3.67)  2009-11-01
?Bully Machine. 431 7 (2.86)  2009-11-02
?Almost Worth The Punchline 6,771 149 (4.07)  2011-03-21
?The Betrayal of the Edmund Fitzgerald 994 22 (3.91)  2011-03-21
?Nixon Admires Constellation Armstrong 655 7 (3.43)  2011-03-22
?Wreck of the Dr. Raymund Stantzgerald 696 15 (4.20)  2011-03-22
?Dat's Racist 16,580 209 (4.54)  2011-09-11
?Feels Damn Good 4,754 105 (4.11)  2012-07-02
?First Day At Work 2.0 12,608 146 (4.62)  2012-10-03
?HOW DO I GET IT WET? 5,263 75 (4.43)  2012-11-11
?DEATH OF THE INTERNET 6,224 86 (4.45)  2012-11-15
?Terry Crews Happy Holidays 240 5 (3.00)  2012-11-30
?Taylor Swift GLSA 3,851 64 (4.30)  2013-03-10
?The Last Shred of Dignity 2,182 46 (4.17)  2013-04-29
?ITS SNOWING! 1,559 48 (4.15)  2013-04-29
?The Xbox ONE 7,707 93 (4.31)  2013-06-14
?THATS WHERE WE'LL FIND EM 171 4 (1.75)  2014-03-19